"read_dt","SO2 (ppb)","flags","PMT voltage (V)","lamp voltage (V)","lamp intensity (Hz)","internal temp (C)","react chamber temp (C)","sample flow (l/min)","pres (mmHg)","SO2 bkg (ppb)","SO2 coefficient"
2013-09-04 00:00:00,3965E-4,5C000000,-0724,0941,11287,028.8,045.4,0.387,729.9,01.19,0.508
2013-09-04 00:01:00,3614E-4,5C000000,-0724,0939,11091,028.8,045.4,0.386,729.9,01.19,0.508
2013-09-04 00:02:00,3477E-4,5C000000,-0724,0940,11146,028.8,045.4,0.387,729.9,01.19,0.508
2013-09-04 00:03:00,3593E-4,5C000000,-0724,0940,11010,028.8,045.4,0.387,729.9,01.19,0.508
2013-09-04 00:04:00,2321E-4,5C000000,-0724,0941,11128,028.8,045.3,0.387,729.8,01.19,0.508
2013-09-04 00:05:00,3368E-4,5C000000,-0724,0940,11064,028.8,045.4,0.387,729.9,01.19,0.508
2013-09-04 00:06:00,2569E-4,5C000000,-0724,0941,11109,028.8,045.4,0.386,729.9,01.19,0.508
2013-09-04 00:07:00,3016E-4,5C000000,-0724,0941,11189,028.8,045.4,0.387,729.8,01.19,0.508
2013-09-04 00:08:00,2140E-4,5C000000,-0724,0940,11110,028.8,045.4,0.387,729.8,01.19,0.508
2013-09-04 00:09:00,1866E-4,5C000000,-0724,0940,11092,028.8,045.4,0.386,729.8,01.19,0.508
2013-09-04 00:10:00,1810E-4,5C000000,-0724,0940,11180,028.8,045.4,0.387,729.8,01.19,0.508
2013-09-04 00:11:00,1685E-4,5C000000,-0724,0940,11173,028.8,045.4,0.386,729.7,01.19,0.508
2013-09-04 00:12:00,9590E-5,5C000000,-0724,0941,11275,028.8,045.4,0.387,729.7,01.19,0.508
2013-09-04 00:13:00,7583E-5,5C000000,-0724,0941,11107,028.8,045.4,0.387,729.8,01.19,0.508
2013-09-04 00:14:00,1255E-4,5C000000,-0724,0940,11123,028.8,045.4,0.387,729.8,01.19,0.508
2013-09-04 00:15:00,2125E-4,5C000000,-0724,0939,11083,028.8,045.4,0.387,729.8,01.19,0.508
2013-09-04 00:16:00,1266E-4,5C000000,-0724,0940,11197,028.8,045.4,0.387,729.8,01.19,0.508
2013-09-04 00:17:00,1975E-4,5C000000,-0724,0940,11261,028.8,045.4,0.387,729.8,01.19,0.508
2013-09-04 00:18:00,9362E-5,5C000000,-0724,0941,11056,028.8,045.4,0.386,729.8,01.19,0.508
2013-09-04 00:19:00,1834E-4,5C000000,-0724,0941,11111,028.8,045.4,0.387,729.8,01.19,0.508
2013-09-04 00:20:00,1566E-4,5C000000,-0724,0940,10920,028.8,045.4,0.387,729.8,01.19,0.508
2013-09-04 00:21:00,1815E-4,5C000000,-0724,0939,11066,028.8,045.4,0.387,729.8,01.19,0.508
2013-09-04 00:22:00,2080E-4,5C000000,-0724,0939,11245,028.8,045.3,0.387,729.7,01.19,0.508
2013-09-04 00:23:00,1755E-4,5C000000,-0724,0941,11169,028.8,045.4,0.386,729.8,01.19,0.508
2013-09-04 00:24:00,2042E-4,5C000000,-0724,0941,11152,028.8,045.4,0.387,729.7,01.19,0.508
2013-09-04 00:25:00,2281E-4,5C000000,-0724,0939,11148,028.7,045.3,0.387,729.7,01.19,0.508
2013-09-04 00:26:00,1398E-4,5C000000,-0724,0940,11162,028.8,045.3,0.387,729.7,01.19,0.508
2013-09-04 00:27:00,1429E-4,5C000000,-0724,0940,11108,028.8,045.3,0.387,729.7,01.19,0.508
2013-09-04 00:28:00,1761E-4,5C000000,-0724,0941,11121,028.8,045.4,0.387,729.7,01.19,0.508
2013-09-04 00:29:00,2023E-4,5C000000,-0724,0939,11080,028.8,045.4,0.387,729.7,01.19,0.508
2013-09-04 00:30:00,1796E-4,5C000000,-0724,0940,11117,028.8,045.4,0.387,729.7,01.19,0.508
2013-09-04 00:31:00,2546E-4,5C000000,-0724,0941,11207,028.8,045.4,0.387,729.7,01.19,0.508
2013-09-04 00:32:00,1445E-4,5C000000,-0724,0940,11002,028.8,045.4,0.387,729.7,01.19,0.508
2013-09-04 00:33:00,2425E-4,5C000000,-0724,0940,11255,028.8,045.4,0.386,729.7,01.19,0.508
2013-09-04 00:34:00,1371E-4,5C000000,-0724,0940,11096,028.8,045.4,0.387,729.7,01.19,0.508
2013-09-04 00:35:00,1611E-4,5C000000,-0724,0940,11043,028.8,045.4,0.387,729.7,01.19,0.508
2013-09-04 00:36:00,1617E-4,5C000000,-0724,0940,11245,028.8,045.4,0.387,729.7,01.19,0.508
2013-09-04 00:37:00,1756E-4,5C000000,-0724,0940,11060,028.8,045.4,0.387,729.7,01.19,0.508
2013-09-04 00:38:00,1587E-4,5C000000,-0724,0939,11183,028.8,045.4,0.386,729.7,01.19,0.508
2013-09-04 00:39:00,1507E-4,5C000000,-0724,0940,10885,028.8,045.4,0.387,729.6,01.19,0.508
2013-09-04 00:40:00,1494E-4,5C000000,-0724,0941,11099,028.8,045.4,0.387,729.6,01.19,0.508
2013-09-04 00:41:00,1622E-4,5C000000,-0724,0940,11124,028.8,045.3,0.386,729.6,01.19,0.508
2013-09-04 00:42:00,1647E-4,5C000000,-0724,0940,11074,028.8,045.4,0.387,729.6,01.19,0.508
2013-09-04 00:43:00,1888E-4,5C000000,-0724,0941,11093,028.8,045.4,0.387,729.6,01.19,0.508
2013-09-04 00:44:00,2102E-4,5C000000,-0724,0940,11195,028.8,045.4,0.387,729.7,01.19,0.508
2013-09-04 00:45:00,1231E-4,5C000000,-0724,0940,11235,028.8,045.4,0.387,729.6,01.19,0.508
2013-09-04 00:46:00,9040E-5,5C000000,-0724,0940,11192,028.8,045.4,0.386,729.6,01.19,0.508
2013-09-04 00:47:00,2000E-4,5C000000,-0724,0940,11169,028.8,045.4,0.387,729.6,01.19,0.508
2013-09-04 00:48:00,1866E-4,5C000000,-0724,0940,10958,028.8,045.4,0.387,729.6,01.19,0.508
2013-09-04 00:49:00,1916E-4,5C000000,-0724,0939,11078,028.9,045.4,0.386,729.5,01.19,0.508
2013-09-04 00:50:00,1117E-4,5C000000,-0724,0941,11200,028.9,045.4,0.387,729.6,01.19,0.508
2013-09-04 00:51:00,2628E-4,5C000000,-0724,0940,11144,028.9,045.4,0.386,729.6,01.19,0.508
2013-09-04 00:52:00,2550E-4,5C000000,-0724,0940,11148,028.9,045.4,0.386,729.6,01.19,0.508
2013-09-04 00:53:00,1573E-4,5C000000,-0724,0941,11221,028.9,045.4,0.387,729.6,01.19,0.508
2013-09-04 00:54:00,2130E-4,5C000000,-0724,0941,11083,028.9,045.4,0.386,729.6,01.19,0.508
2013-09-04 00:55:00,1457E-4,5C000000,-0724,0940,11101,029.0,045.3,0.387,729.6,01.19,0.508
2013-09-04 00:56:00,1547E-4,5C000000,-0724,0940,11169,029.0,045.4,0.387,729.7,01.19,0.508
2013-09-04 00:57:00,2564E-4,5C000000,-0724,0941,11067,029.0,045.4,0.386,729.6,01.19,0.508
2013-09-04 00:58:00,9837E-5,5C000000,-0724,0940,11248,029.0,045.4,0.386,729.6,01.19,0.508
2013-09-04 00:59:00,1688E-4,5C000000,-0724,0941,11048,029.0,045.4,0.386,729.6,01.19,0.508
2013-09-04 01:00:00,2384E-4,5C000000,-0724,0940,10960,029.0,045.3,0.386,729.6,01.19,0.508
2013-09-04 01:01:00,2073E-4,5C000000,-0724,0942,11006,029.0,045.4,0.386,729.6,01.19,0.508
2013-09-04 01:02:00,8901E-5,5C000000,-0724,0941,11080,029.0,045.4,0.386,729.6,01.19,0.508
2013-09-04 01:03:00,1565E-4,5C000000,-0724,0942,10925,029.1,045.4,0.386,729.5,01.19,0.508
2013-09-04 01:04:00,1892E-4,5C000000,-0724,0941,11019,029.1,045.4,0.386,729.6,01.19,0.508
2013-09-04 01:05:00,2454E-4,5C000000,-0724,0941,11047,029.1,045.4,0.386,729.6,01.19,0.508
2013-09-04 01:06:00,8167E-5,5C000000,-0724,0942,11223,029.1,045.4,0.386,729.6,01.19,0.508
2013-09-04 01:07:00,1973E-4,5C000000,-0724,0941,11109,029.1,045.4,0.386,729.6,01.19,0.508
2013-09-04 01:08:00,2509E-4,5C000000,-0724,0941,11135,029.1,045.4,0.386,729.6,01.19,0.508
2013-09-04 01:09:00,1059E-4,5C000000,-0724,0942,11025,029.1,045.4,0.386,729.6,01.19,0.508
2013-09-04 01:10:00,1515E-4,5C000000,-0724,0941,10997,029.1,045.4,0.386,729.7,01.19,0.508
2013-09-04 01:11:00,1625E-4,5C000000,-0724,0941,10975,029.2,045.4,0.386,729.6,01.19,0.508
2013-09-04 01:12:00,2223E-4,5C000000,-0724,0941,11140,029.2,045.4,0.386,729.6,01.19,0.508
2013-09-04 01:13:00,1602E-4,5C000000,-0724,0942,10993,029.2,045.4,0.386,729.6,01.19,0.508
2013-09-04 01:14:00,1179E-4,5C000000,-0724,0941,11176,029.2,045.4,0.386,729.6,01.19,0.508
2013-09-04 01:15:00,7247E-5,5C000000,-0724,0942,11161,029.2,045.4,0.386,729.6,01.19,0.508
2013-09-04 01:16:00,1114E-4,5C000000,-0724,0941,10727,029.2,045.4,0.385,729.6,01.19,0.508
2013-09-04 01:17:00,1789E-4,5C000000,-0724,0941,11128,029.2,045.4,0.386,729.6,01.19,0.508
2013-09-04 01:18:00,1995E-4,5C000000,-0724,0941,11079,029.3,045.4,0.385,729.6,01.19,0.508
2013-09-04 01:19:00,1820E-4,5C000000,-0724,0941,11134,029.2,045.4,0.386,729.6,01.19,0.508
2013-09-04 01:20:00,1964E-4,5C000000,-0724,0941,11094,029.3,045.4,0.386,729.6,01.19,0.508
2013-09-04 01:21:00,1566E-4,5C000000,-0724,0941,11086,029.2,045.4,0.386,729.6,01.19,0.508
2013-09-04 01:22:00,1288E-4,5C000000,-0724,0941,11135,029.3,045.4,0.386,729.6,01.19,0.508
2013-09-04 01:23:00,1713E-4,5C000000,-0724,0942,11048,029.3,045.4,0.386,729.6,01.19,0.508
2013-09-04 01:24:00,1403E-4,5C000000,-0724,0941,11082,029.3,045.4,0.386,729.6,01.19,0.508
2013-09-04 01:25:00,2628E-4,5C000000,-0724,0942,11151,029.3,045.4,0.385,729.7,01.19,0.508
2013-09-04 01:26:00,2474E-4,5C000000,-0724,0941,11116,029.3,045.4,0.386,729.7,01.19,0.508
2013-09-04 01:27:00,1465E-4,5C000000,-0724,0942,11173,029.3,045.4,0.385,729.7,01.19,0.508
2013-09-04 01:28:00,1782E-4,5C000000,-0724,0941,10924,029.3,045.4,0.386,729.7,01.19,0.508
2013-09-04 01:29:00,1713E-4,5C000000,-0724,0941,11185,029.3,045.4,0.385,729.7,01.19,0.508
2013-09-04 01:30:00,1684E-4,5C000000,-0724,0941,11155,029.3,045.4,0.386,729.7,01.19,0.508
2013-09-04 01:31:00,9871E-5,5C000000,-0724,0942,10981,029.3,045.4,0.386,729.7,01.19,0.508
2013-09-04 01:32:00,2015E-4,5C000000,-0724,0941,11090,029.3,045.4,0.386,729.7,01.19,0.508
2013-09-04 01:33:00,1686E-4,5C000000,-0724,0942,11161,029.3,045.4,0.386,729.7,01.19,0.508
2013-09-04 01:34:00,2605E-4,5C000000,-0724,0941,11092,029.3,045.4,0.386,729.7,01.19,0.508
2013-09-04 01:35:00,1279E-4,5C000000,-0724,0941,11066,029.3,045.4,0.386,729.7,01.19,0.508
2013-09-04 01:36:00,1615E-4,5C000000,-0724,0941,11128,029.3,045.4,0.386,729.7,01.19,0.508
2013-09-04 01:37:00,5822E-5,5C000000,-0724,0941,11109,029.3,045.4,0.386,729.7,01.19,0.508
2013-09-04 01:38:00,1698E-4,5C000000,-0724,0942,11140,029.3,045.4,0.386,729.7,01.19,0.508
2013-09-04 01:39:00,1735E-4,5C000000,-0724,0942,10935,029.3,045.4,0.386,729.6,01.19,0.508
2013-09-04 01:40:00,1562E-4,5C000000,-0724,0942,11116,029.3,045.4,0.385,729.6,01.19,0.508
2013-09-04 01:41:00,1648E-4,5C000000,-0724,0942,11089,029.3,045.4,0.386,729.6,01.19,0.508
2013-09-04 01:42:00,1633E-4,5C000000,-0724,0941,10969,029.4,045.4,0.385,729.6,01.19,0.508
2013-09-04 01:43:00,1201E-4,5C000000,-0724,0941,11098,029.3,045.4,0.386,729.7,01.19,0.508
2013-09-04 01:44:00,1710E-4,5C000000,-0724,0941,10959,029.4,045.4,0.385,729.7,01.19,0.508
2013-09-04 01:45:00,1706E-4,5C000000,-0724,0941,10992,029.4,045.4,0.386,729.7,01.19,0.508
2013-09-04 01:46:00,2146E-4,5C000000,-0724,0941,11095,029.4,045.4,0.385,729.6,01.19,0.508
2013-09-04 01:47:00,8978E-5,5C000000,-0724,0942,11068,029.4,045.4,0.386,729.6,01.19,0.508
2013-09-04 01:48:00,1448E-4,5C000000,-0724,0942,10953,029.4,045.4,0.386,729.6,01.19,0.508
2013-09-04 01:49:00,1068E-4,5C000000,-0724,0941,11149,029.4,045.4,0.385,729.5,01.19,0.508
2013-09-04 01:50:00,1004E-4,5C000000,-0724,0941,10994,029.4,045.4,0.386,729.5,01.19,0.508
2013-09-04 01:51:00,1525E-4,5C000000,-0724,0942,11129,029.4,045.4,0.385,729.5,01.19,0.508
2013-09-04 01:52:00,1073E-4,5C000000,-0724,0943,11241,029.4,045.4,0.386,729.4,01.19,0.508
2013-09-04 01:53:00,1414E-4,5C000000,-0724,0941,10987,029.4,045.4,0.385,729.4,01.19,0.508
2013-09-04 01:54:00,2005E-4,5C000000,-0724,0941,11108,029.4,045.4,0.386,729.4,01.19,0.508
2013-09-04 01:55:00,1203E-4,5C000000,-0724,0941,11023,029.4,045.4,0.385,729.4,01.19,0.508
2013-09-04 01:56:00,1040E-4,5C000000,-0724,0943,11065,029.5,045.4,0.386,729.4,01.19,0.508
2013-09-04 01:57:00,2083E-4,5C000000,-0724,0942,11066,029.5,045.4,0.386,729.3,01.19,0.508
2013-09-04 01:58:00,2221E-4,5C000000,-0724,0941,11049,029.5,045.4,0.385,729.4,01.19,0.508
2013-09-04 01:59:00,1586E-4,5C000000,-0724,0941,11228,029.5,045.4,0.386,729.4,01.19,0.508
2013-09-04 02:00:00,2455E-4,5C000000,-0724,0943,11202,029.5,045.4,0.385,729.3,01.19,0.508
2013-09-04 02:01:00,1665E-4,5C000000,-0724,0942,11130,029.5,045.4,0.386,729.4,01.19,0.508
2013-09-04 02:02:00,1172E-4,5C000000,-0724,0942,11251,029.5,045.4,0.385,729.3,01.19,0.508
2013-09-04 02:03:00,1598E-4,5C000000,-0724,0942,11115,029.5,045.4,0.385,729.3,01.19,0.508
2013-09-04 02:04:00,9472E-5,5C000000,-0724,0942,11126,029.5,045.4,0.386,729.4,01.19,0.508
2013-09-04 02:05:00,1253E-4,5C000000,-0724,0941,11203,029.5,045.4,0.385,729.4,01.19,0.508
2013-09-04 02:06:00,9368E-5,5C000000,-0724,0942,11199,029.5,045.4,0.386,729.4,01.19,0.508
2013-09-04 02:07:00,2245E-4,5C000000,-0724,0941,11158,029.6,045.4,0.385,729.4,01.19,0.508
2013-09-04 02:08:00,2022E-4,5C000000,-0724,0942,11124,029.6,045.4,0.385,729.4,01.19,0.508
2013-09-04 02:09:00,1555E-4,5C000000,-0724,0942,11071,029.6,045.4,0.385,729.3,01.19,0.508
2013-09-04 02:10:00,1310E-4,5C000000,-0724,0942,11018,029.6,045.4,0.385,729.3,01.19,0.508
2013-09-04 02:11:00,2274E-4,5C000000,-0724,0941,11125,029.6,045.4,0.385,729.3,01.19,0.508
2013-09-04 02:12:00,2402E-4,5C000000,-0724,0941,11047,029.6,045.4,0.385,729.3,01.19,0.508
2013-09-04 02:13:00,2440E-4,5C000000,-0724,0942,11125,029.7,045.4,0.385,729.3,01.19,0.508
2013-09-04 02:14:00,1883E-4,5C000000,-0724,0942,11196,029.7,045.4,0.385,729.3,01.19,0.508
2013-09-04 02:15:00,1879E-4,5C000000,-0724,0942,11113,029.7,045.4,0.385,729.3,01.19,0.508
2013-09-04 02:16:00,1231E-4,5C000000,-0724,0942,11015,029.7,045.4,0.385,729.3,01.19,0.508
2013-09-04 02:17:00,2116E-4,5C000000,-0724,0941,11203,029.7,045.4,0.385,729.3,01.19,0.508
2013-09-04 02:18:00,1374E-4,5C000000,-0724,0942,11118,029.7,045.4,0.385,729.3,01.19,0.508
2013-09-04 02:19:00,2091E-4,5C000000,-0724,0941,11168,029.7,045.4,0.385,729.3,01.19,0.508
2013-09-04 02:20:00,1700E-4,5C000000,-0724,0942,11156,029.7,045.4,0.385,729.3,01.19,0.508
2013-09-04 02:21:00,1325E-4,5C000000,-0724,0942,11198,029.8,045.4,0.385,729.3,01.19,0.508
2013-09-04 02:22:00,1194E-4,5C000000,-0724,0941,10995,029.8,045.4,0.385,729.3,01.19,0.508
2013-09-04 02:23:00,2095E-4,5C000000,-0724,0942,11055,029.8,045.4,0.385,729.3,01.19,0.508
2013-09-04 02:24:00,1674E-4,5C000000,-0724,0941,11126,029.8,045.4,0.384,729.3,01.19,0.508
2013-09-04 02:25:00,1442E-4,5C000000,-0724,0942,11166,029.8,045.4,0.385,729.3,01.19,0.508
2013-09-04 02:26:00,2600E-4,5C000000,-0724,0942,11195,029.7,045.4,0.384,729.3,01.19,0.508
2013-09-04 02:27:00,1529E-4,5C000000,-0724,0942,11153,029.8,045.4,0.385,729.3,01.19,0.508
2013-09-04 02:28:00,1999E-4,5C000000,-0724,0942,11059,029.8,045.4,0.385,729.3,01.19,0.508
2013-09-04 02:29:00,2183E-4,5C000000,-0724,0941,11108,029.7,045.4,0.385,729.3,01.19,0.508
2013-09-04 02:30:00,2048E-4,5C000000,-0724,0942,11001,029.7,045.4,0.385,729.3,01.19,0.508
2013-09-04 02:31:00,1851E-4,5C000000,-0724,0941,10934,029.8,045.4,0.385,729.3,01.19,0.508
2013-09-04 02:32:00,1833E-4,5C000000,-0724,0941,11109,029.8,045.4,0.385,729.3,01.19,0.508
2013-09-04 02:33:00,1666E-4,5C000000,-0724,0942,11037,029.8,045.4,0.385,729.3,01.19,0.508
2013-09-04 02:34:00,1889E-4,5C000000,-0724,0942,11110,029.8,045.4,0.385,729.3,01.19,0.508
2013-09-04 02:35:00,1851E-4,5C000000,-0724,0941,10982,029.8,045.4,0.385,729.4,01.19,0.508
2013-09-04 02:36:00,2156E-4,5C000000,-0724,0943,11130,029.8,045.4,0.384,729.3,01.19,0.508
2013-09-04 02:37:00,1602E-4,5C000000,-0724,0942,11180,029.8,045.4,0.385,729.3,01.19,0.508
2013-09-04 02:38:00,1577E-4,5C000000,-0724,0942,10959,029.8,045.4,0.384,729.3,01.19,0.508
2013-09-04 02:39:00,1283E-4,5C000000,-0724,0942,10905,029.8,045.4,0.385,729.3,01.19,0.508
2013-09-04 02:40:00,1873E-4,5C000000,-0724,0942,10997,029.8,045.4,0.384,729.3,01.19,0.508
2013-09-04 02:41:00,1438E-4,5C000000,-0724,0942,11212,029.8,045.4,0.385,729.3,01.19,0.508
2013-09-04 02:42:00,2082E-4,5C000000,-0724,0942,11133,029.8,045.4,0.384,729.3,01.19,0.508
2013-09-04 02:43:00,1424E-4,5C000000,-0724,0942,11170,029.8,045.4,0.385,729.3,01.19,0.508
2013-09-04 02:44:00,1918E-4,5C000000,-0724,0942,11113,029.8,045.4,0.384,729.3,01.19,0.508
2013-09-04 02:45:00,2369E-4,5C000000,-0724,0942,10987,029.8,045.4,0.385,729.4,01.19,0.508
2013-09-04 02:46:00,1807E-4,5C000000,-0724,0942,11118,029.8,045.4,0.384,729.4,01.19,0.508
2013-09-04 02:47:00,1192E-4,5C000000,-0724,0942,11180,029.8,045.4,0.385,729.4,01.19,0.508
2013-09-04 02:48:00,8471E-5,5C000000,-0724,0941,11136,029.8,045.4,0.384,729.4,01.19,0.508
2013-09-04 02:49:00,2136E-4,5C000000,-0724,0942,11095,029.8,045.4,0.385,729.4,01.19,0.508
2013-09-04 02:50:00,2254E-4,5C000000,-0724,0943,10906,029.9,045.4,0.384,729.4,01.19,0.508
2013-09-04 02:51:00,1886E-4,5C000000,-0724,0942,11131,029.9,045.4,0.385,729.4,01.19,0.508
2013-09-04 02:52:00,1764E-4,5C000000,-0724,0942,11168,029.9,045.4,0.384,729.4,01.19,0.508
2013-09-04 02:53:00,1789E-4,5C000000,-0724,0942,11091,029.9,045.4,0.385,729.4,01.19,0.508
2013-09-04 02:54:00,1454E-4,5C000000,-0724,0941,11097,029.9,045.4,0.384,729.4,01.19,0.508
2013-09-04 02:55:00,1645E-4,5C000000,-0724,0942,11057,029.9,045.4,0.385,729.4,01.19,0.508
2013-09-04 02:56:00,1588E-4,5C000000,-0724,0942,11116,029.9,045.4,0.384,729.4,01.19,0.508
2013-09-04 02:57:00,8452E-5,5C000000,-0724,0942,11160,029.9,045.4,0.385,729.4,01.19,0.508
2013-09-04 02:58:00,1420E-4,5C000000,-0724,0942,10991,029.9,045.4,0.384,729.4,01.19,0.508
2013-09-04 02:59:00,1628E-4,5C000000,-0724,0943,11194,029.9,045.4,0.385,729.4,01.19,0.508
2013-09-04 03:00:00,1263E-4,5C000000,-0724,0942,11004,029.9,045.4,0.384,729.4,01.19,0.508
2013-09-04 03:01:00,1814E-4,5C000000,-0724,0943,11172,029.9,045.4,0.385,729.3,01.19,0.508
2013-09-04 03:02:00,5691E-5,5C000000,-0724,0943,11175,030.0,045.4,0.384,729.4,01.19,0.508
2013-09-04 03:03:00,1548E-4,5C000000,-0724,0942,10987,030.0,045.4,0.385,729.4,01.19,0.508
2013-09-04 03:04:00,1599E-4,5C000000,-0724,0943,11092,030.0,045.4,0.384,729.4,01.19,0.508
2013-09-04 03:05:00,1691E-4,5C000000,-0724,0943,11112,030.0,045.4,0.385,729.4,01.19,0.508
2013-09-04 03:06:00,1163E-4,5C000000,-0724,0943,11158,030.0,045.4,0.384,729.4,01.19,0.508
2013-09-04 03:07:00,1079E-4,5C000000,-0724,0942,11074,030.0,045.4,0.384,729.4,01.19,0.508
2013-09-04 03:08:00,2445E-4,5C000000,-0724,0942,11144,030.0,045.4,0.384,729.4,01.19,0.508
2013-09-04 03:09:00,1081E-4,5C000000,-0724,0942,10990,030.0,045.4,0.384,729.4,01.19,0.508
2013-09-04 03:10:00,1978E-4,5C000000,-0724,0942,11087,030.0,045.4,0.384,729.4,01.19,0.508
2013-09-04 03:11:00,1949E-4,5C000000,-0724,0942,11166,030.0,045.4,0.384,729.4,01.19,0.508
2013-09-04 03:12:00,2418E-4,5C000000,-0724,0942,11120,030.0,045.4,0.384,729.4,01.19,0.508
2013-09-04 03:13:00,1370E-4,5C000000,-0724,0942,10886,030.1,045.4,0.384,729.4,01.19,0.508
2013-09-04 03:14:00,1891E-4,5C000000,-0724,0942,11173,030.1,045.4,0.384,729.4,01.19,0.508
2013-09-04 03:15:00,1614E-4,5C000000,-0724,0943,11089,030.1,045.4,0.384,729.4,01.19,0.508
2013-09-04 03:16:00,1076E-4,5C000000,-0724,0942,11039,030.1,045.4,0.384,729.4,01.19,0.508
2013-09-04 03:17:00,1307E-4,5C000000,-0724,0942,11008,030.1,045.4,0.384,729.4,01.19,0.508
2013-09-04 03:18:00,1824E-4,5C000000,-0724,0943,11038,030.1,045.4,0.384,729.4,01.19,0.508
2013-09-04 03:19:00,1515E-4,5C000000,-0724,0942,11128,030.1,045.4,0.384,729.4,01.19,0.508
2013-09-04 03:20:00,1550E-4,5C000000,-0724,0943,10990,030.1,045.4,0.384,729.4,01.19,0.508
2013-09-04 03:21:00,1842E-4,5C000000,-0724,0943,11070,030.1,045.4,0.384,729.4,01.19,0.508
2013-09-04 03:22:00,1809E-4,5C000000,-0724,0943,11128,030.1,045.4,0.383,729.4,01.19,0.508
2013-09-04 03:23:00,1077E-4,5C000000,-0724,0941,11160,030.1,045.4,0.384,729.4,01.19,0.508
2013-09-04 03:24:00,2495E-4,5C000000,-0724,0942,11122,030.1,045.4,0.384,729.4,01.19,0.508
2013-09-04 03:25:00,2458E-4,5C000000,-0724,0943,11047,030.1,045.4,0.384,729.4,01.19,0.508
2013-09-04 03:26:00,1127E-4,5C000000,-0724,0943,11182,030.1,045.4,0.384,729.4,01.19,0.508
2013-09-04 03:27:00,1193E-4,5C000000,-0724,0943,11165,030.2,045.4,0.384,729.3,01.19,0.508
2013-09-04 03:28:00,1930E-4,5C000000,-0724,0943,11069,030.2,045.4,0.384,729.4,01.19,0.508
2013-09-04 03:29:00,1503E-4,5C000000,-0724,0943,11170,030.2,045.4,0.383,729.4,01.19,0.508
2013-09-04 03:30:00,1646E-4,5C000000,-0724,0943,11179,030.2,045.4,0.384,729.4,01.19,0.508
2013-09-04 03:31:00,1556E-4,5C000000,-0724,0943,11119,030.2,045.4,0.383,729.4,01.19,0.508
2013-09-04 03:32:00,2465E-4,5C000000,-0724,0943,10969,030.2,045.4,0.384,729.4,01.19,0.508
2013-09-04 03:33:00,1812E-4,5C000000,-0724,0943,11075,030.2,045.4,0.384,729.4,01.19,0.508
2013-09-04 03:34:00,1742E-4,5C000000,-0724,0943,11054,030.2,045.4,0.384,729.4,01.19,0.508
2013-09-04 03:35:00,2587E-4,5C000000,-0724,0942,11101,030.2,045.4,0.384,729.4,01.19,0.508
2013-09-04 03:36:00,1326E-4,5C000000,-0724,0942,11117,030.2,045.4,0.383,729.4,01.19,0.508
2013-09-04 03:37:00,1805E-4,5C000000,-0724,0944,11139,030.2,045.4,0.384,729.4,01.19,0.508
2013-09-04 03:38:00,1396E-4,5C000000,-0724,0943,10962,030.2,045.4,0.383,729.4,01.19,0.508
2013-09-04 03:39:00,1346E-4,5C000000,-0724,0942,11059,030.2,045.4,0.384,729.4,01.19,0.508
2013-09-04 03:40:00,1544E-4,5C000000,-0724,0944,11092,030.3,045.4,0.384,729.4,01.19,0.508
2013-09-04 03:41:00,1974E-4,5C000000,-0724,0943,11161,030.3,045.4,0.384,729.4,01.19,0.508
2013-09-04 03:42:00,2444E-4,5C000000,-0724,0943,11133,030.3,045.4,0.384,729.4,01.19,0.508
2013-09-04 03:43:00,1820E-4,5C000000,-0724,0943,11099,030.3,045.4,0.383,729.4,01.19,0.508
2013-09-04 03:44:00,1431E-4,5C000000,-0724,0943,11055,030.3,045.4,0.384,729.4,01.19,0.508
2013-09-04 03:45:00,1468E-4,5C000000,-0724,0943,11077,030.3,045.4,0.383,729.4,01.19,0.508
2013-09-04 03:46:00,2747E-4,5C000000,-0724,0943,11054,030.3,045.4,0.383,729.4,01.19,0.508
2013-09-04 03:47:00,1973E-4,5C000000,-0724,0943,11130,030.3,045.4,0.384,729.4,01.19,0.508
2013-09-04 03:48:00,1603E-4,5C000000,-0724,0942,10954,030.3,045.4,0.383,729.4,01.19,0.508
2013-09-04 03:49:00,1611E-4,5C000000,-0724,0944,11049,030.3,045.4,0.384,729.4,01.19,0.508
2013-09-04 03:50:00,2201E-4,5C000000,-0724,0943,11078,030.3,045.4,0.384,729.4,01.19,0.508
2013-09-04 03:51:00,1714E-4,5C000000,-0724,0943,11154,030.3,045.4,0.383,729.5,01.19,0.508
2013-09-04 03:52:00,1333E-4,5C000000,-0724,0943,10990,030.3,045.4,0.384,729.4,01.19,0.508
2013-09-04 03:53:00,2613E-4,5C000000,-0724,0943,11162,030.3,045.4,0.383,729.5,01.19,0.508
2013-09-04 03:54:00,1388E-4,5C000000,-0724,0943,11132,030.3,045.4,0.384,729.5,01.19,0.508
2013-09-04 03:55:00,1451E-4,5C000000,-0724,0943,11090,030.4,045.4,0.384,729.5,01.19,0.508
2013-09-04 03:56:00,1671E-4,5C000000,-0724,0943,11059,030.4,045.4,0.383,729.5,01.19,0.508
2013-09-04 03:57:00,1703E-4,5C000000,-0724,0944,11183,030.3,045.4,0.384,729.5,01.19,0.508
2013-09-04 03:58:00,1920E-4,5C000000,-0724,0942,11214,030.3,045.4,0.383,729.5,01.19,0.508
2013-09-04 03:59:00,1684E-4,5C000000,-0724,0943,10991,030.3,045.4,0.384,729.5,01.19,0.508
2013-09-04 04:00:00,2045E-4,5C000000,-0724,0944,11121,030.3,045.4,0.384,729.5,01.19,0.508
2013-09-04 04:01:00,2784E-4,5C000000,-0724,0943,11046,030.3,045.4,0.383,729.4,01.19,0.508
2013-09-04 04:02:00,1974E-4,5C000000,-0724,0943,11078,030.2,045.4,0.384,729.4,01.19,0.508
2013-09-04 04:03:00,2092E-4,5C000000,-0724,0943,11070,030.3,045.4,0.384,729.4,01.19,0.508
2013-09-04 04:04:00,1789E-4,5C000000,-0724,0944,11097,030.2,045.4,0.384,729.4,01.19,0.508
2013-09-04 04:05:00,1666E-4,5C000000,-0724,0943,11261,030.2,045.4,0.384,729.4,01.19,0.508
2013-09-04 04:06:00,2168E-4,5C000000,-0724,0942,11163,030.2,045.4,0.384,729.4,01.19,0.508
2013-09-04 04:07:00,2266E-4,5C000000,-0724,0942,11096,030.2,045.4,0.385,729.4,01.19,0.508
2013-09-04 04:08:00,2161E-4,5C000000,-0724,0942,11054,030.2,045.4,0.384,729.4,01.19,0.508
2013-09-04 04:09:00,1411E-4,5C000000,-0724,0942,11036,030.2,045.4,0.384,729.4,01.19,0.508
2013-09-04 04:10:00,7740E-5,5C000000,-0724,0942,11068,030.1,045.4,0.384,729.4,01.19,0.508
2013-09-04 04:11:00,1156E-4,5C000000,-0724,0942,11105,030.1,045.4,0.385,729.4,01.19,0.508
2013-09-04 04:12:00,2399E-4,5C000000,-0724,0943,11148,030.1,045.4,0.385,729.4,01.19,0.508
2013-09-04 04:13:00,1665E-4,5C000000,-0724,0942,10991,030.1,045.4,0.384,729.4,01.19,0.508
2013-09-04 04:14:00,2115E-4,5C000000,-0724,0942,11087,030.0,045.4,0.385,729.4,01.19,0.508
2013-09-04 04:15:00,1493E-4,5C000000,-0724,0943,11071,030.0,045.4,0.385,729.4,01.19,0.508
2013-09-04 04:16:00,1189E-4,5C000000,-0724,0943,11015,029.9,045.4,0.385,729.4,01.19,0.508
2013-09-04 04:17:00,8204E-5,5C000000,-0724,0943,11021,029.8,045.4,0.385,729.4,01.19,0.508
2013-09-04 04:18:00,1214E-4,5C000000,-0724,0942,11119,029.7,045.4,0.386,729.4,01.19,0.508
2013-09-04 04:19:00,1341E-4,5C000000,-0724,0941,11159,029.6,045.4,0.386,729.4,01.19,0.508
2013-09-04 04:20:00,1094E-4,5C000000,-0724,0942,11118,029.5,045.4,0.385,729.4,01.19,0.508